Weather History for Manchester, NH

Change the Weather History Date:

Thursday, October 11, 2012

  Actual Average Record
Temperature  
Mean Temperature 48 °F -  
Max Temperature 57 °F 59 °F 85 °F (1949)
Min Temperature 42 °F 36 °F 20 °F (1956)
Degree Days  
Heating Degree Days 16    
Moisture  
Dew Point 34 °F    
Average Humidity 56    
Maximum Humidity 79    
Minimum Humidity 33    
Precipitation  
Precipitation 0.00 in - - ()
Sea Level Pressure  
Sea Level Pressure 30.04 in    
Wind  
Wind Speed 7 mph (WSW)    
Max Wind Speed 13 mph    
Max Gust Speed 23 mph    
Visibility 10 miles    
Events      
Averages and records for this station are not official NWS values.
T = Trace of Precipitation, MM = Missing Value Source: NWS Daily Summary

Daily Weather History Graph

Daily Weather History Graph

Search for Another Location

Airport:

Trip Planner

Search our weather history database for the weather conditions in past years. The results will help you decide how hot, cold, wet, or windy it might be!

Date:

Astronomy

Oct. 11, 2012 Rise Set
Actual Time 6:54 AM EDT 6:08 PM EDT
Civil Twilight 6:26 AM EDT 6:37 PM EDT
Nautical Twilight 5:53 AM EDT 7:10 PM EDT
Astronomical Twilight 5:20 AM EDT 7:42 PM EDT
Moon 2:24 AM EDT (10/11) 3:48 PM EDT (10/11)
Length of Visible Light 12h 10m
Length of Day
11h 13m
Waning Crescent, 18% of the Moon is Illuminated
Oct 11
Waning Crescent
Oct 15
New
Oct 21
First Quarter
Oct 29
Full
Nov 6
Last Quarter

Hourly Weather History & Observations

Time (EDT) Temp. Windchill Dew Point Humidity Pressure Visibility Wind Dir Wind Speed Gust Speed Precip Events Conditions
12:53 AM 52.0 °F - 39.9 °F 63% 29.83 in 10.0 mi WNW 8.1 mph - N/A   Overcast
1:53 AM 50.0 °F - 42.1 °F 74% 29.84 in 10.0 mi West 3.5 mph - N/A   Mostly Cloudy
2:53 AM 48.9 °F - 41.0 °F 74% 29.86 in 10.0 mi WSW 4.6 mph - N/A   Partly Cloudy
3:53 AM 46.9 °F - 37.9 °F 71% 29.88 in 10.0 mi West 5.8 mph - N/A   Partly Cloudy
4:53 AM 46.9 °F - 36.0 °F 66% 29.92 in 10.0 mi WSW 8.1 mph - N/A   Clear
5:53 AM 45.0 °F 43.5 °F 36.0 °F 71% 29.95 in 10.0 mi WSW 3.5 mph - N/A   Clear
6:53 AM 46.0 °F 42.5 °F 35.1 °F 66% 29.98 in 10.0 mi SW 6.9 mph - N/A   Clear
7:53 AM 46.0 °F 43.9 °F 35.1 °F 66% 30.01 in 10.0 mi Variable 4.6 mph - N/A   Clear
8:53 AM 48.9 °F - 34.0 °F 56% 30.05 in 10.0 mi WSW 5.8 mph 16.1 mph N/A   Partly Cloudy
9:53 AM 50.0 °F - 32.0 °F 50% 30.08 in 10.0 mi West 10.4 mph 21.9 mph N/A   Partly Cloudy
10:53 AM 52.0 °F - 30.0 °F 43% 30.09 in 10.0 mi WNW 12.7 mph 18.4 mph N/A   Partly Cloudy
11:53 AM 54.0 °F - 28.9 °F 38% 30.10 in 10.0 mi West 9.2 mph 18.4 mph N/A   Scattered Clouds
12:53 PM 55.9 °F - 27.0 °F 33% 30.09 in 10.0 mi WNW 10.4 mph 23.0 mph N/A   Scattered Clouds
1:53 PM 55.9 °F - 28.0 °F 34% 30.09 in 10.0 mi WNW 12.7 mph 20.7 mph N/A   Scattered Clouds
2:53 PM 55.9 °F - 28.9 °F 36% 30.10 in 10.0 mi West 9.2 mph - N/A   Scattered Clouds
3:53 PM 55.9 °F - 28.9 °F 36% 30.10 in 10.0 mi WSW 11.5 mph - N/A   Partly Cloudy
4:53 PM 55.9 °F - 30.0 °F 37% 30.11 in 10.0 mi WSW 9.2 mph 18.4 mph N/A   Partly Cloudy
5:53 PM 53.6 °F - 30.2 °F 41% 30.08 in 10.0 mi WSW 9.2 mph - N/A   Partly Cloudy
6:53 PM 51.1 °F - 32.0 °F 48% 30.14 in 10.0 mi SSW 4.6 mph - N/A   Clear
7:53 PM 48.0 °F - 33.1 °F 56% 30.14 in 10.0 mi SSW 3.5 mph - N/A   Clear
8:53 PM 46.4 °F 44.3 °F 35.6 °F 66% 30.09 in 10.0 mi South 4.6 mph - N/A   Clear
9:53 PM 45.0 °F 42.6 °F 34.0 °F 65% 30.13 in 10.0 mi South 4.6 mph - N/A   Clear
10:53 PM 42.1 °F - 36.0 °F 79% 30.13 in 10.0 mi Calm Calm - N/A   Clear
11:53 PM 42.1 °F 40.2 °F 35.1 °F 76% 30.12 in 10.0 mi SSE 3.5 mph - N/A   Clear